Battle Creek, MI

12:20 AM EST on December 10, 2019 (GMT -0500)
Kellogg

Weather History for KBTL - July, 2019

Change the Weather History Date:

Monday, July 15, 2019

  Actual Average Record
Temperature  
Mean Temperature 79 °F 71 °F  
Max Temperature 91 °F 83 °F 93 °F (2006)
Min Temperature 67 °F 59 °F 50 °F (2007)
Degree Days  
Heating Degree Days 0 0  
Month to date heating degree days 0 6  
Since 1 June heating degree days 46 63  
Since 1 July heating degree days 0 6  
Cooling Degree Days 14 7  
Month to date cooling degree days 171 101  
Year to date cooling degree days 312 265  
Since 1 June cooling degree days 296 227  
Growing Degree Days 30 (Base 50)    
Moisture  
Dew Point 66 °F    
Average Humidity 64    
Maximum Humidity 84    
Minimum Humidity 44    
Precipitation  
Precipitation 0.00 in 0.11 in 1.38 in (2010)
Month to date precipitation 1.07 1.60  
Year to date precipitation 19.36 16.31  
Sea Level Pressure  
Sea Level Pressure 30.04 in    
Wind  
Wind Speed 9 mph (SW)    
Max Wind Speed 20 mph    
Max Gust Speed 28 mph    
Visibility 10 miles    
Events      
T = Trace of Precipitation, MM = Missing Value Source: NWS Daily Summary

Daily Weather History Graph

Daily Weather History Graph

Search for Another Location

Airport or City:

Astronomy

Jul. 15, 2019 Rise Set
Actual Time 6:17 AM EDT 9:15 PM EDT
Civil Twilight 5:43 AM EDT 9:49 PM EDT
Nautical Twilight 5:01 AM EDT 10:31 PM EDT
Astronomical Twilight 4:11 AM EDT 11:21 PM EDT
Moon 8:33 PM EDT (7/15) 5:03 AM EDT (7/15)
Length of Visible Light 16h 05m
Length of Day
14h 58m
Waxing Gibbous, 98% of the Moon is Illuminated
Jul 15
Waxing Gibbous
Jul 16
Full
Jul 24
Last Quarter
Jul 31
New
Aug 7
First Quarter

Hourly Weather History & Observations

Time (EDT) Temp. Heat Index Dew Point Humidity Pressure Visibility Wind Dir Wind Speed Gust Speed Precip Events Conditions
12:53 AM 70.0 °F - 62.1 °F 76% 30.10 in 10.0 mi Calm Calm - N/A   Clear
1:53 AM 69.1 °F - 61.0 °F 75% 30.09 in 10.0 mi Calm Calm - N/A   Clear
2:53 AM 70.0 °F - 59.0 °F 68% 30.08 in 10.0 mi SSE 4.6 mph - N/A   Clear
3:53 AM 70.0 °F - 59.0 °F 68% 30.06 in 10.0 mi SSE 6.9 mph - N/A   Clear
4:53 AM 69.1 °F - 59.0 °F 70% 30.06 in 10.0 mi SSE 5.8 mph - N/A   Clear
5:53 AM 69.1 °F - 59.0 °F 70% 30.06 in 10.0 mi South 4.6 mph - N/A   Clear
6:53 AM 69.1 °F - 62.1 °F 78% 30.07 in 10.0 mi SSE 4.6 mph - N/A   Clear
7:53 AM 72.0 °F - 66.0 °F 81% 30.08 in 10.0 mi South 5.8 mph - N/A   Clear
8:53 AM 77.0 °F - 69.1 °F 76% 30.09 in 10.0 mi South 6.9 mph - N/A   Overcast
9:53 AM 80.1 °F 83.2 °F 70.0 °F 71% 30.08 in 10.0 mi WSW 5.8 mph - N/A   Scattered Clouds
10:53 AM 82.9 °F 87.5 °F 71.1 °F 67% 30.08 in 10.0 mi WSW 8.1 mph - N/A   Clear
11:53 AM 86.0 °F 91.5 °F 71.1 °F 61% 30.07 in 10.0 mi WSW 10.4 mph - N/A   Partly Cloudy
12:53 PM 86.0 °F 91.5 °F 71.1 °F 61% 30.06 in 10.0 mi West 8.1 mph - N/A   Mostly Cloudy
1:53 PM 89.1 °F 95.0 °F 71.1 °F 55% 30.04 in 10.0 mi West 13.8 mph - N/A   Scattered Clouds
2:53 PM 90.0 °F 96.4 °F 71.1 °F 54% 30.02 in 10.0 mi SW 15.0 mph 21.9 mph N/A   Mostly Cloudy
3:53 PM 91.0 °F 95.6 °F 69.1 °F 48% 30.00 in 10.0 mi WSW 13.8 mph - N/A   Mostly Cloudy
4:53 PM 90.0 °F 91.3 °F 64.0 °F 42% 29.99 in 10.0 mi WSW 16.1 mph - N/A   Scattered Clouds
5:53 PM 90.0 °F 91.3 °F 64.0 °F 42% 29.98 in 10.0 mi WSW 12.7 mph - N/A   Clear
6:53 PM 89.1 °F 91.0 °F 64.9 °F 45% 29.98 in 10.0 mi WSW 13.8 mph - N/A   Scattered Clouds
7:53 PM 87.1 °F 88.9 °F 64.9 °F 48% 29.99 in 10.0 mi WSW 11.5 mph - N/A   Clear
8:53 PM 82.9 °F 85.4 °F 66.9 °F 58% 30.00 in 10.0 mi WSW 8.1 mph - N/A   Clear
9:53 PM 81.0 °F 83.3 °F 66.9 °F 62% 29.99 in 10.0 mi SW 10.4 mph - N/A   Clear
10:53 PM 79.0 °F - 66.9 °F 66% 30.01 in 10.0 mi SW 6.9 mph - N/A   Clear
11:53 PM 75.9 °F - 66.0 °F 71% 30.02 in 10.0 mi WSW 5.8 mph - N/A   Clear